This is the latest recevied weather packets stored in our database for station/object AA7DG. If no packets are shown the sender has not sent any weather packets the latest 10 day(s).
| Time | Temp. | Humidity | Pressure | Rain* | Wind** | Luminosity | Snow |
|---|---|---|---|---|---|---|---|
| 1777748402 | 24.44° C | 31% | 1016.9 hPa | - | - | - | - |
| 1777747801 | 23.89° C | 33% | 1017 hPa | - | - | - | - |
| 1777746601 | 22.78° C | 34% | 1017.3 hPa | - | - | - | - |
| 1777743606 | 20.56° C | 41% | 1017.6 hPa | - | - | - | - |
| 1777743001 | 20° C | 42% | 1017.9 hPa | - | - | - | - |
| 1777742702 | 20.56° C | 42% | 1017.9 hPa | - | - | - | - |
| 1777742402 | 20.56° C | 43% | 1017.9 hPa | - | - | - | - |
| 1777742106 | 20° C | 44% | 1017.9 hPa | - | - | - | - |
| 1777740002 | 17.22° C | 48% | 1018 hPa | - | - | - | - |
| 1777736113 | 13.89° C | 60% | 1018.6 hPa | - | - | - | - |
| 1777734303 | 13.33° C | 64% | 1018.3 hPa | - | - | - | - |
| 1777731610 | 8.89° C | 82% | 1018.2 hPa | - | - | - | - |
| 1777731001 | 8.33° C | 83% | 1018 hPa | - | - | - | - |
| 1777730401 | 7.78° C | 84% | 1018.2 hPa | - | - | - | - |
| 1777729502 | 7.22° C | 87% | 1017.9 hPa | - | - | - | - |
| 1777728006 | 6.67° C | 88% | 1017.7 hPa | - | - | - | - |
| 1777725606 | 6.67° C | 88% | 1017.6 hPa | - | - | - | - |
| 1777724459 | 6.67° C | 86% | 1017.6 hPa | - | - | - | - |
| 1777716906 | 8.89° C | 80% | 1017.6 hPa | - | - | - | - |
| 1777711805 | 10.56° C | 74% | 1017.3 hPa | - | - | - | - |
| 1777706417 | 11.67° C | 67% | 1017.3 hPa | - | - | - | - |
| 1777705805 | 12.22° C | 66% | 1016.9 hPa | - | - | - | - |
| 1777705503 | 12.22° C | 66% | 1016.9 hPa | - | - | - | - |
| 1777702817 | 13.33° C | 62% | 1016.9 hPa | - | - | - | - |
| 1777700739 | 13.89° C | 59% | 1016.9 hPa | - | - | - | - |
* Rain since midnight (hover to see other rain measurements)
** Current wind speed in m/s (hover to see current wind gust speed)